Location: Newark
(50.0306°N, 2.3272°E)
Time: 06:12:29
(UTC+00:00)

Transit 2A Rocket - Pass Details

Date: 12 December 2019
Orbit: 593 x 910 km, 66.7° (Epoch: 17 January)

Event Time Altitude Azimuth Distance (km) Brightness Sun altitude
Rises 18:15:33 0° 271° (W) 2,880 9.4 -22.4°
Reaches altitude 10° 18:18:38 10° 294° (WNW) 1,950 7.9 -22.9°
Maximum altitude 18:21:19 16° 332° (NNW) 1,591 6.8 -23.3°
Enters shadow 18:22:45 14° 355° (N) 1,697 6.7 -23.5°
Drops below altitude 10° 18:24:00 10° 11° (N) 1,938 - -23.7°
Sets 18:27:03 0° 34° (NE) 2,853 - -24.2°
